Location: Franzen
(48.6167°N, 15.3833°E)
Time: 18:27:08
(UTC+00:00)

Transit 2A - Pass Details

Date: 05 August 2021
Orbit: 594 x 964 km, 66.7° (Epoch: 26 September)

Event Time Altitude Azimuth Distance (km) Brightness Sun altitude
Rises 06:24:07 0° 265° (W) 2,900 8.4 25.7°
Reaches altitude 10° 06:26:54 10° 283° (WNW) 2,041 7.7 26.1°
Maximum altitude 06:30:12 19° 330° (NNW) 1,585 7.5 26.7°
Drops below altitude 10° 06:33:43 10° 15° (NNE) 2,189 8.6 27.3°
Sets 06:36:51 0° 33° (NNE) 3,189 9.6 27.8°
